Year,Month,Day,Hour,Minute,Value (Times are PST for windspeed in km/hr)
2008,10,07,00,00,4.20
2008,10,07,00,01,5.00
2008,10,07,00,02,4.20
2008,10,07,00,03,6.00
2008,10,07,00,04,4.60
2008,10,07,00,05,5.70
2008,10,07,00,06,7.30
2008,10,07,00,07,6.50
2008,10,07,00,08,12.10
2008,10,07,00,09,6.10
2008,10,07,00,10,8.70
2008,10,07,00,11,5.90
2008,10,07,00,12,4.80
2008,10,07,00,13,8.20
2008,10,07,00,14,5.70
2008,10,07,00,15,3.10
2008,10,07,00,16,5.90
2008,10,07,00,17,9.60
2008,10,07,00,18,8.50
2008,10,07,00,19,10.50
2008,10,07,00,20,7.30
2008,10,07,00,21,5.00
2008,10,07,00,22,11.80
2008,10,07,00,23,10.50
2008,10,07,00,24,12.40
2008,10,07,00,25,8.10
2008,10,07,00,26,8.30
2008,10,07,00,27,5.00
2008,10,07,00,28,7.70
2008,10,07,00,29,6.80
2008,10,07,00,30,8.90
2008,10,07,00,31,3.10
2008,10,07,00,32,5.70
2008,10,07,00,33,9.50
2008,10,07,00,34,6.70
2008,10,07,00,35,4.50
2008,10,07,00,36,6.80
2008,10,07,00,37,5.50
2008,10,07,00,38,5.60
2008,10,07,00,39,5.20
2008,10,07,00,40,4.10
2008,10,07,00,41,2.40
2008,10,07,00,42,5.20
2008,10,07,00,43,4.30
2008,10,07,00,44,5.50
2008,10,07,00,45,8.90
2008,10,07,00,46,5.00
2008,10,07,00,47,5.10
2008,10,07,00,48,4.70
2008,10,07,00,49,4.10
2008,10,07,00,50,3.40
2008,10,07,00,51,2.10
2008,10,07,00,52,5.30
2008,10,07,00,53,8.30
2008,10,07,00,54,7.00
2008,10,07,00,55,3.90
2008,10,07,00,56,4.70
2008,10,07,00,57,2.10
2008,10,07,00,58,6.20
2008,10,07,00,59,5.60
2008,10,07,01,00,5.60
2008,10,07,01,01,5.30
2008,10,07,01,02,5.00
2008,10,07,01,03,2.80
2008,10,07,01,04,3.60
2008,10,07,01,05,9.30
2008,10,07,01,06,7.00
2008,10,07,01,07,7.10
2008,10,07,01,08,6.50
2008,10,07,01,09,4.30
2008,10,07,01,10,3.90
2008,10,07,01,11,4.80
2008,10,07,01,12,6.90
2008,10,07,01,13,4.80
2008,10,07,01,14,5.90
2008,10,07,01,15,4.60
2008,10,07,01,16,6.30
2008,10,07,01,17,8.00
2008,10,07,01,18,4.30
2008,10,07,01,19,6.80
2008,10,07,01,20,3.60
2008,10,07,01,21,9.90
2008,10,07,01,22,7.00
2008,10,07,01,23,5.60
2008,10,07,01,24,5.90
2008,10,07,01,25,7.00
2008,10,07,01,26,7.10
2008,10,07,01,27,7.10
2008,10,07,01,28,9.30
2008,10,07,01,29,8.70
2008,10,07,01,30,11.60
2008,10,07,01,31,6.20
2008,10,07,01,32,5.30
2008,10,07,01,33,9.50
2008,10,07,01,34,11.70
2008,10,07,01,35,6.80
2008,10,07,01,36,9.70
2008,10,07,01,37,10.50
2008,10,07,01,38,11.70
2008,10,07,01,39,5.30
2008,10,07,01,40,7.60
2008,10,07,01,41,7.60
2008,10,07,01,42,5.00
2008,10,07,01,43,7.40
2008,10,07,01,44,8.80
2008,10,07,01,45,11.20
2008,10,07,01,46,7.90
2008,10,07,01,47,10.40
2008,10,07,01,48,7.80
2008,10,07,01,49,12.00
2008,10,07,01,50,7.80
2008,10,07,01,51,9.90
2008,10,07,01,52,4.70
2008,10,07,01,53,7.10
2008,10,07,01,54,10.30
2008,10,07,01,55,6.10
2008,10,07,01,56,9.20
2008,10,07,01,57,5.60
2008,10,07,01,58,8.60
2008,10,07,01,59,8.80
2008,10,07,02,00,8.20
2008,10,07,02,01,10.40
2008,10,07,02,02,10.60
2008,10,07,02,03,6.30
2008,10,07,02,04,8.30
2008,10,07,02,05,8.40
2008,10,07,02,06,6.40
2008,10,07,02,07,7.40
2008,10,07,02,08,12.90
2008,10,07,02,09,7.30
2008,10,07,02,10,11.70
2008,10,07,02,11,8.50
2008,10,07,02,12,7.30
2008,10,07,02,13,5.20
2008,10,07,02,14,7.10
2008,10,07,02,15,7.80
2008,10,07,02,16,5.30
2008,10,07,02,17,6.20
2008,10,07,02,18,9.20
2008,10,07,02,19,8.40
2008,10,07,02,20,14.30
2008,10,07,02,21,9.70
2008,10,07,02,22,6.20
2008,10,07,02,23,8.00
2008,10,07,02,24,7.40
2008,10,07,02,25,6.00
2008,10,07,02,26,5.60
2008,10,07,02,27,6.20
2008,10,07,02,28,6.70
2008,10,07,02,29,7.20
2008,10,07,02,30,9.10
2008,10,07,02,31,12.40
2008,10,07,02,32,8.90
2008,10,07,02,33,6.80
2008,10,07,02,34,8.60
2008,10,07,02,35,11.40
2008,10,07,02,36,5.50
2008,10,07,02,37,5.10
2008,10,07,02,38,4.50
2008,10,07,02,39,7.70
2008,10,07,02,40,9.30
2008,10,07,02,41,7.60
2008,10,07,02,42,8.00
2008,10,07,02,43,5.60
2008,10,07,02,44,4.70
2008,10,07,02,45,8.40
2008,10,07,02,46,6.80
2008,10,07,02,47,5.60
2008,10,07,02,48,7.00
2008,10,07,02,49,13.30
2008,10,07,02,50,9.80
2008,10,07,02,51,4.90
2008,10,07,02,52,7.30
2008,10,07,02,53,4.90
2008,10,07,02,54,8.30
2008,10,07,02,55,6.00
2008,10,07,02,56,12.10
2008,10,07,02,57,10.10
2008,10,07,02,58,12.60
2008,10,07,02,59,6.80
2008,10,07,03,00,14.20
2008,10,07,03,01,12.60
2008,10,07,03,02,7.60
2008,10,07,03,03,8.30
2008,10,07,03,04,6.10
2008,10,07,03,05,8.00
2008,10,07,03,06,7.70
2008,10,07,03,07,12.20
2008,10,07,03,08,16.20
2008,10,07,03,09,9.00
2008,10,07,03,10,9.30
2008,10,07,03,11,10.60
2008,10,07,03,12,9.50
2008,10,07,03,13,5.50
2008,10,07,03,14,4.40
2008,10,07,03,15,6.10
2008,10,07,03,16,9.20
2008,10,07,03,17,7.10
2008,10,07,03,18,11.50
2008,10,07,03,19,10.90
2008,10,07,03,20,5.60
2008,10,07,03,21,6.70
2008,10,07,03,22,7.20
2008,10,07,03,23,9.80
2008,10,07,03,24,10.60
2008,10,07,03,25,8.60
2008,10,07,03,26,10.60
2008,10,07,03,27,6.40
2008,10,07,03,28,13.60
2008,10,07,03,29,5.40
2008,10,07,03,30,6.60
2008,10,07,03,31,11.20
2008,10,07,03,32,7.50
2008,10,07,03,33,8.40
2008,10,07,03,34,5.00
2008,10,07,03,35,8.70
2008,10,07,03,36,9.60
2008,10,07,03,37,9.60
2008,10,07,03,38,9.60
2008,10,07,03,39,6.20
2008,10,07,03,40,8.30
2008,10,07,03,41,8.00
2008,10,07,03,42,8.20
2008,10,07,03,43,10.70
2008,10,07,03,44,10.50
2008,10,07,03,45,6.40
2008,10,07,03,46,7.20
2008,10,07,03,47,7.60
2008,10,07,03,48,7.20
2008,10,07,03,49,7.30
2008,10,07,03,50,9.10
2008,10,07,03,51,14.10
2008,10,07,03,52,7.70
2008,10,07,03,53,11.60
2008,10,07,03,54,8.50
2008,10,07,03,55,11.20
2008,10,07,03,56,8.00
2008,10,07,03,57,10.00
2008,10,07,03,58,7.60
2008,10,07,03,59,9.70
2008,10,07,04,00,9.00
2008,10,07,04,01,7.80
2008,10,07,04,02,7.10
2008,10,07,04,03,5.40
2008,10,07,04,04,7.20
2008,10,07,04,05,9.00
2008,10,07,04,06,12.40
2008,10,07,04,07,10.90
2008,10,07,04,08,12.50
2008,10,07,04,09,8.80
2008,10,07,04,10,9.50
2008,10,07,04,11,7.60
2008,10,07,04,12,8.50
2008,10,07,04,13,9.70
2008,10,07,04,14,12.60
2008,10,07,04,15,7.60
2008,10,07,04,16,9.50
2008,10,07,04,17,6.30
2008,10,07,04,18,5.30
2008,10,07,04,19,7.60
2008,10,07,04,20,5.60
2008,10,07,04,21,7.50
2008,10,07,04,22,10.80
2008,10,07,04,23,8.80
2008,10,07,04,24,12.00
2008,10,07,04,25,9.10
2008,10,07,04,26,12.50
2008,10,07,04,27,9.60
2008,10,07,04,28,10.50
2008,10,07,04,29,12.10
2008,10,07,04,30,12.70
2008,10,07,04,31,8.10
2008,10,07,04,32,8.40
2008,10,07,04,33,8.90
2008,10,07,04,34,6.90
2008,10,07,04,35,12.40
2008,10,07,04,36,7.80
2008,10,07,04,37,8.10
2008,10,07,04,38,8.30
2008,10,07,04,39,7.60
2008,10,07,04,40,8.30
2008,10,07,04,41,7.50
2008,10,07,04,42,8.20
2008,10,07,04,43,9.00
2008,10,07,04,44,4.90
2008,10,07,04,45,7.40
2008,10,07,04,46,10.10
2008,10,07,04,47,7.10
2008,10,07,04,48,10.70
2008,10,07,04,49,14.70
2008,10,07,04,50,8.60
2008,10,07,04,51,10.90
2008,10,07,04,52,6.70
2008,10,07,04,53,8.90
2008,10,07,04,54,8.90
2008,10,07,04,55,6.80
2008,10,07,04,56,4.90
2008,10,07,04,57,7.20
2008,10,07,04,58,6.20
2008,10,07,04,59,6.20
2008,10,07,05,00,6.80
2008,10,07,05,01,5.80
2008,10,07,05,02,7.60
2008,10,07,05,03,6.80
2008,10,07,05,04,7.70
2008,10,07,05,05,7.00
2008,10,07,05,06,8.30
2008,10,07,05,07,8.40
2008,10,07,05,08,8.00
2008,10,07,05,09,5.80
2008,10,07,05,10,6.70
2008,10,07,05,11,9.40
2008,10,07,05,12,8.90
2008,10,07,05,13,7.20
2008,10,07,05,14,7.40
2008,10,07,05,15,8.50
2008,10,07,05,16,10.50
2008,10,07,05,17,14.20
2008,10,07,05,18,7.70
2008,10,07,05,19,6.90
2008,10,07,05,20,6.40
2008,10,07,05,21,8.30
2008,10,07,05,22,11.30
2008,10,07,05,23,10.20
2008,10,07,05,24,8.80
2008,10,07,05,25,7.40
2008,10,07,05,26,6.60
2008,10,07,05,27,8.00
2008,10,07,05,28,10.40
2008,10,07,05,29,7.60
2008,10,07,05,30,7.40
2008,10,07,05,31,7.40
2008,10,07,05,32,6.00
2008,10,07,05,33,6.30
2008,10,07,05,34,6.80
2008,10,07,05,35,8.00
2008,10,07,05,36,6.40
2008,10,07,05,37,7.30
2008,10,07,05,38,9.40
2008,10,07,05,39,8.70
2008,10,07,05,40,5.60
2008,10,07,05,41,6.90
2008,10,07,05,42,9.00
2008,10,07,05,43,6.40
2008,10,07,05,44,4.70
2008,10,07,05,45,7.20
2008,10,07,05,46,6.40
2008,10,07,05,47,9.30
2008,10,07,05,48,9.00
2008,10,07,05,49,6.00
2008,10,07,05,50,6.40
2008,10,07,05,51,8.90
2008,10,07,05,52,4.70
2008,10,07,05,53,5.40
2008,10,07,05,54,8.60
2008,10,07,05,55,4.90
2008,10,07,05,56,7.80
2008,10,07,05,57,6.60
2008,10,07,05,58,6.20
2008,10,07,05,59,5.60
2008,10,07,06,00,5.70
2008,10,07,06,01,4.90
2008,10,07,06,02,6.10
2008,10,07,06,03,4.60
2008,10,07,06,04,4.50
2008,10,07,06,05,4.60
2008,10,07,06,06,5.10
2008,10,07,06,07,3.60
2008,10,07,06,08,4.10
2008,10,07,06,09,4.80
2008,10,07,06,10,4.10
2008,10,07,06,11,4.00
2008,10,07,06,12,6.60
2008,10,07,06,13,6.10
2008,10,07,06,14,4.20
2008,10,07,06,15,6.20
2008,10,07,06,16,4.30
2008,10,07,06,17,4.50
2008,10,07,06,18,4.30
2008,10,07,06,19,5.30
2008,10,07,06,20,7.10
2008,10,07,06,21,4.00
2008,10,07,06,22,5.40
2008,10,07,06,23,4.70
2008,10,07,06,24,9.50
2008,10,07,06,25,9.90
2008,10,07,06,26,6.90
2008,10,07,06,27,7.70
2008,10,07,06,28,8.40
2008,10,07,06,29,7.00
2008,10,07,06,30,6.40
2008,10,07,06,31,7.20
2008,10,07,06,32,9.30
2008,10,07,06,33,9.20
2008,10,07,06,34,6.00
2008,10,07,06,35,9.90
2008,10,07,06,36,7.60
2008,10,07,06,37,5.80
2008,10,07,06,38,5.40
2008,10,07,06,39,4.30
2008,10,07,06,40,5.50
2008,10,07,06,41,5.10
2008,10,07,06,42,5.20
2008,10,07,06,43,7.90
2008,10,07,06,44,9.00
2008,10,07,06,45,7.60
2008,10,07,06,46,7.40
2008,10,07,06,47,5.70
2008,10,07,06,48,6.00
2008,10,07,06,49,6.30
2008,10,07,06,50,5.10
2008,10,07,06,51,4.00
2008,10,07,06,52,5.90
2008,10,07,06,53,6.10
2008,10,07,06,54,8.30
2008,10,07,06,55,6.90
2008,10,07,06,56,7.40
2008,10,07,06,57,3.80
2008,10,07,06,58,5.10
2008,10,07,06,59,7.10
2008,10,07,07,00,11.70
2008,10,07,07,01,5.00
2008,10,07,07,02,5.80
2008,10,07,07,03,5.00
2008,10,07,07,04,6.50
2008,10,07,07,05,7.20
2008,10,07,07,06,8.00
2008,10,07,07,07,8.10
2008,10,07,07,08,8.90
2008,10,07,07,09,4.70
2008,10,07,07,10,5.60
2008,10,07,07,11,6.80
2008,10,07,07,12,4.60
2008,10,07,07,13,5.00
2008,10,07,07,14,5.60
2008,10,07,07,15,3.00
2008,10,07,07,16,4.50
2008,10,07,07,17,2.00
2008,10,07,07,18,5.20
2008,10,07,07,19,3.90
2008,10,07,07,20,6.70
2008,10,07,07,21,3.90
2008,10,07,07,22,4.70
2008,10,07,07,23,4.30
2008,10,07,07,24,6.00
2008,10,07,07,25,2.60
2008,10,07,07,26,1.10
2008,10,07,07,27,4.30
2008,10,07,07,28,7.20
2008,10,07,07,29,7.70
2008,10,07,07,30,5.40
2008,10,07,07,31,6.50
2008,10,07,07,32,1.70
2008,10,07,07,33,0.60
2008,10,07,07,34,2.30
2008,10,07,07,35,2.40
2008,10,07,07,36,1.90
2008,10,07,07,37,3.70
2008,10,07,07,38,4.20
2008,10,07,07,39,4.80
2008,10,07,07,40,10.50
2008,10,07,07,41,4.00
2008,10,07,07,42,4.70
2008,10,07,07,43,3.60
2008,10,07,07,44,3.90
2008,10,07,07,45,4.20
2008,10,07,07,46,3.40
2008,10,07,07,47,4.70
2008,10,07,07,48,4.00
2008,10,07,07,49,5.80
2008,10,07,07,50,2.10
2008,10,07,07,51,2.40
2008,10,07,07,52,0.50
2008,10,07,07,53,2.90
2008,10,07,07,54,2.20
2008,10,07,07,55,1.50
2008,10,07,07,56,4.00
2008,10,07,07,57,3.60
2008,10,07,07,58,5.90
2008,10,07,07,59,4.70
2008,10,07,08,00,3.30
2008,10,07,08,01,2.80
2008,10,07,08,02,7.50
2008,10,07,08,03,1.90
2008,10,07,08,04,2.60
2008,10,07,08,05,3.60
2008,10,07,08,06,4.60
2008,10,07,08,07,3.40
2008,10,07,08,08,0.60
2008,10,07,08,09,2.50
2008,10,07,08,10,3.50
2008,10,07,08,11,0.50
2008,10,07,08,12,2.90
2008,10,07,08,13,4.50
2008,10,07,08,14,4.60
2008,10,07,08,15,4.10
2008,10,07,08,16,1.90
2008,10,07,08,17,0.60
2008,10,07,08,18,0.90
2008,10,07,08,19,0.30
2008,10,07,08,20,2.80
2008,10,07,08,21,3.90
2008,10,07,08,22,3.90
2008,10,07,08,23,1.30
2008,10,07,08,24,1.50
2008,10,07,08,25,3.90
2008,10,07,08,26,4.40
2008,10,07,08,27,4.20
2008,10,07,08,28,4.10
2008,10,07,08,29,8.10
2008,10,07,08,30,3.10
2008,10,07,08,31,1.60
2008,10,07,08,32,4.70
2008,10,07,08,33,4.30
2008,10,07,08,34,3.10
2008,10,07,08,35,2.70
2008,10,07,08,36,2.80
2008,10,07,08,37,1.10
2008,10,07,08,38,3.50
2008,10,07,08,39,2.30
2008,10,07,08,40,4.30
2008,10,07,08,41,3.30
2008,10,07,08,42,4.00
2008,10,07,08,43,3.10
2008,10,07,08,44,5.10
2008,10,07,08,45,3.50
2008,10,07,08,46,2.70
2008,10,07,08,47,1.50
2008,10,07,08,48,0.40
2008,10,07,08,49,2.50
2008,10,07,08,50,4.40
2008,10,07,08,51,4.50
2008,10,07,08,52,4.30
2008,10,07,08,53,3.80
2008,10,07,08,54,4.90
2008,10,07,08,55,1.60
2008,10,07,08,56,5.30
2008,10,07,08,57,4.70
2008,10,07,08,58,5.00
2008,10,07,08,59,5.00
2008,10,07,09,00,4.30
2008,10,07,09,01,8.60
2008,10,07,09,02,4.50
2008,10,07,09,03,5.60
2008,10,07,09,04,4.80
2008,10,07,09,05,3.50
2008,10,07,09,06,5.10
2008,10,07,09,07,3.60
2008,10,07,09,08,5.20
2008,10,07,09,09,6.60
2008,10,07,09,10,4.80
2008,10,07,09,11,4.20
2008,10,07,09,12,4.30
2008,10,07,09,13,5.80
2008,10,07,09,14,5.10
2008,10,07,09,15,2.90
2008,10,07,09,16,5.70
2008,10,07,09,17,3.70
2008,10,07,09,18,4.90
2008,10,07,09,19,4.70
2008,10,07,09,20,6.40
2008,10,07,09,21,1.80
2008,10,07,09,22,1.50
2008,10,07,09,23,3.00
2008,10,07,09,24,4.50
2008,10,07,09,25,4.50
2008,10,07,09,26,2.20
2008,10,07,09,27,6.00
2008,10,07,09,28,4.60
2008,10,07,09,29,2.60
2008,10,07,09,30,2.70
2008,10,07,09,31,5.00
2008,10,07,09,32,5.10
2008,10,07,09,33,4.20
2008,10,07,09,34,7.90
2008,10,07,09,35,4.10
2008,10,07,09,36,4.70
2008,10,07,09,37,4.00
2008,10,07,09,38,5.90
2008,10,07,09,39,5.90
2008,10,07,09,40,2.80
2008,10,07,09,41,4.10
2008,10,07,09,42,5.50
2008,10,07,09,43,4.50
2008,10,07,09,44,6.70
2008,10,07,09,45,5.90
2008,10,07,09,46,3.50
2008,10,07,09,47,4.70
2008,10,07,09,48,3.90
2008,10,07,09,49,1.60
2008,10,07,09,50,2.50
2008,10,07,09,51,1.90
2008,10,07,09,52,2.70
2008,10,07,09,53,3.40
2008,10,07,09,54,2.60
2008,10,07,09,55,4.40
2008,10,07,09,56,1.30
2008,10,07,09,57,2.50
2008,10,07,09,58,2.60
2008,10,07,09,59,4.80
2008,10,07,10,00,4.40
2008,10,07,10,01,1.80
2008,10,07,10,02,3.80
2008,10,07,10,03,3.80
2008,10,07,10,04,1.90
2008,10,07,10,05,3.10
2008,10,07,10,06,3.70
2008,10,07,10,07,5.60
2008,10,07,10,08,5.10
2008,10,07,10,09,8.30
2008,10,07,10,10,5.20
2008,10,07,10,11,3.90
2008,10,07,10,12,3.00
2008,10,07,10,13,3.70
2008,10,07,10,14,9.60
2008,10,07,10,15,5.70
2008,10,07,10,16,3.60
2008,10,07,10,17,3.50
2008,10,07,10,18,3.50
2008,10,07,10,19,1.70
2008,10,07,10,20,3.50
2008,10,07,10,21,4.40
2008,10,07,10,22,5.10
2008,10,07,10,23,2.90
2008,10,07,10,24,6.50
2008,10,07,10,25,8.70
2008,10,07,10,26,5.30
2008,10,07,10,27,7.50
2008,10,07,10,28,3.50
2008,10,07,10,29,1.80
2008,10,07,10,30,5.70
2008,10,07,10,31,2.60
2008,10,07,10,32,3.10
2008,10,07,10,33,2.60
2008,10,07,10,34,6.00
2008,10,07,10,35,4.50
2008,10,07,10,36,2.70
2008,10,07,10,37,3.30
2008,10,07,10,38,4.00
2008,10,07,10,39,4.70
2008,10,07,10,40,5.10
2008,10,07,10,41,1.20
2008,10,07,10,42,3.00
2008,10,07,10,43,6.30
2008,10,07,10,44,6.30
2008,10,07,10,45,5.10
2008,10,07,10,46,5.10
2008,10,07,10,47,5.80
2008,10,07,10,48,5.80
2008,10,07,10,49,8.70
2008,10,07,10,50,6.10
2008,10,07,10,51,5.10
2008,10,07,10,52,7.20
2008,10,07,10,53,4.60
2008,10,07,10,54,6.30
2008,10,07,10,55,5.80
2008,10,07,10,56,3.70
2008,10,07,10,57,8.50
2008,10,07,10,58,6.70
2008,10,07,10,59,3.60
2008,10,07,11,00,5.60
2008,10,07,11,01,13.50
2008,10,07,11,02,5.80
2008,10,07,11,03,5.10
2008,10,07,11,04,4.70
2008,10,07,11,05,4.90
2008,10,07,11,06,3.30
2008,10,07,11,07,7.70
2008,10,07,11,08,3.50
2008,10,07,11,09,4.30
2008,10,07,11,10,4.70
2008,10,07,11,11,5.30
2008,10,07,11,12,2.30
2008,10,07,11,13,5.10
2008,10,07,11,14,6.80
2008,10,07,11,15,9.30
2008,10,07,11,16,7.30
2008,10,07,11,17,3.50
2008,10,07,11,18,1.30
2008,10,07,11,19,3.40
2008,10,07,11,20,3.90
2008,10,07,11,21,2.10
2008,10,07,11,22,4.60
2008,10,07,11,23,2.00
2008,10,07,11,24,4.40
2008,10,07,11,25,5.40
2008,10,07,11,26,3.10
2008,10,07,11,27,3.10
2008,10,07,11,28,8.00
2008,10,07,11,29,6.20
2008,10,07,11,30,2.70
2008,10,07,11,31,4.80
2008,10,07,11,32,8.00
2008,10,07,11,33,5.20
2008,10,07,11,34,1.50
2008,10,07,11,35,4.30
2008,10,07,11,36,0.60
2008,10,07,11,37,2.00
2008,10,07,11,38,2.30
2008,10,07,11,39,7.50
2008,10,07,11,40,4.80
2008,10,07,11,41,3.60
2008,10,07,11,42,3.60
2008,10,07,11,43,3.00
2008,10,07,11,44,5.70
2008,10,07,11,45,1.80
2008,10,07,11,46,4.20
2008,10,07,11,47,4.80
2008,10,07,11,48,1.00
2008,10,07,11,49,4.70
2008,10,07,11,50,3.90
2008,10,07,11,51,5.70
2008,10,07,11,52,8.00
2008,10,07,11,53,3.60
2008,10,07,11,54,2.70
2008,10,07,11,55,8.10
2008,10,07,11,56,6.80
2008,10,07,11,57,6.30
2008,10,07,11,58,3.50
2008,10,07,11,59,0.70
2008,10,07,12,00,5.50
2008,10,07,12,01,7.00
2008,10,07,12,02,5.20
2008,10,07,12,03,5.60
2008,10,07,12,04,3.80
2008,10,07,12,05,1.50
2008,10,07,12,06,4.10
2008,10,07,12,07,5.20
2008,10,07,12,08,6.40
2008,10,07,12,09,7.50
2008,10,07,12,10,3.80
2008,10,07,12,11,3.30
2008,10,07,12,12,2.20
2008,10,07,12,13,1.60
2008,10,07,12,14,1.00
2008,10,07,12,15,5.30
2008,10,07,12,16,3.50
2008,10,07,12,17,1.70
2008,10,07,12,18,2.40
2008,10,07,12,19,6.30
2008,10,07,12,20,4.90
2008,10,07,12,21,0.60
2008,10,07,12,22,1.40
2008,10,07,12,23,0.30
2008,10,07,12,24,0.40
2008,10,07,12,25,3.20
2008,10,07,12,26,4.80
2008,10,07,12,27,5.10
2008,10,07,12,28,8.50
2008,10,07,12,29,4.80
2008,10,07,12,30,7.30
2008,10,07,12,31,7.20
2008,10,07,12,32,5.60
2008,10,07,12,33,6.30
2008,10,07,12,34,4.40
2008,10,07,12,35,2.10
2008,10,07,12,36,5.60
2008,10,07,12,37,1.80
2008,10,07,12,38,4.70
2008,10,07,12,39,1.00
2008,10,07,12,40,5.80
2008,10,07,12,41,5.10
2008,10,07,12,42,6.10
2008,10,07,12,43,4.90
2008,10,07,12,44,6.90
2008,10,07,12,45,6.40
2008,10,07,12,46,2.70
2008,10,07,12,47,1.70
2008,10,07,12,48,5.80
2008,10,07,12,49,5.30
2008,10,07,12,50,6.50
2008,10,07,12,51,4.80
2008,10,07,12,52,5.90
2008,10,07,12,53,3.70
2008,10,07,12,54,2.30
2008,10,07,12,55,4.80
2008,10,07,12,56,10.50
2008,10,07,12,57,6.30
2008,10,07,12,58,8.60
2008,10,07,12,59,9.00
2008,10,07,13,00,3.70
2008,10,07,13,01,4.70
2008,10,07,13,02,4.30
2008,10,07,13,03,7.10
2008,10,07,13,04,7.50
2008,10,07,13,05,5.50
2008,10,07,13,06,0.50
2008,10,07,13,07,1.90
2008,10,07,13,08,3.60
2008,10,07,13,09,3.90
2008,10,07,13,10,4.00
2008,10,07,13,11,6.10
2008,10,07,13,12,3.30
2008,10,07,13,13,4.70
2008,10,07,13,14,2.90
2008,10,07,13,15,4.30
2008,10,07,13,16,5.30
2008,10,07,13,17,4.80
2008,10,07,13,18,5.90
2008,10,07,13,19,4.20
2008,10,07,13,20,6.00
2008,10,07,13,21,7.20
2008,10,07,13,22,5.60
2008,10,07,13,23,5.20
2008,10,07,13,24,4.30
2008,10,07,13,25,5.50
2008,10,07,13,26,6.90
2008,10,07,13,27,4.30
2008,10,07,13,28,3.10
2008,10,07,13,29,4.50
2008,10,07,13,30,4.50
2008,10,07,13,31,6.00
2008,10,07,13,32,3.40
2008,10,07,13,33,2.30
2008,10,07,13,34,2.00
2008,10,07,13,35,1.90
2008,10,07,13,36,4.80
2008,10,07,13,37,2.50
2008,10,07,13,38,1.30
2008,10,07,13,39,0.20
2008,10,07,13,40,1.00
2008,10,07,13,41,3.30
2008,10,07,13,42,4.60
2008,10,07,13,43,3.70
2008,10,07,13,44,3.10
2008,10,07,13,45,2.30
2008,10,07,13,46,0.90
2008,10,07,13,47,3.50
2008,10,07,13,48,2.10
2008,10,07,13,49,1.30
2008,10,07,13,50,0.80
2008,10,07,13,51,6.10
2008,10,07,13,52,3.60
2008,10,07,13,53,2.30
2008,10,07,13,54,3.00
2008,10,07,13,55,3.80
2008,10,07,13,56,2.80
2008,10,07,13,57,1.70
2008,10,07,13,58,2.80
2008,10,07,13,59,1.20
2008,10,07,14,00,3.50
2008,10,07,14,01,0.80
2008,10,07,14,02,1.40
2008,10,07,14,03,1.30
2008,10,07,14,04,1.20
2008,10,07,14,05,1.30
2008,10,07,14,06,1.70
2008,10,07,14,07,0.60
2008,10,07,14,08,0.00
2008,10,07,14,09,0.00
2008,10,07,14,10,0.00
2008,10,07,14,11,0.00
2008,10,07,14,12,1.10
2008,10,07,14,13,1.00
2008,10,07,14,14,0.10
2008,10,07,14,15,0.60
2008,10,07,14,16,1.10
2008,10,07,14,17,1.80
2008,10,07,14,18,2.90
2008,10,07,14,19,1.40
2008,10,07,14,20,3.90
2008,10,07,14,21,2.50
2008,10,07,14,22,0.40
2008,10,07,14,23,0.40
2008,10,07,14,24,1.90
2008,10,07,14,25,3.10
2008,10,07,14,26,1.50
2008,10,07,14,27,1.10
2008,10,07,14,28,0.90
2008,10,07,14,29,0.10
2008,10,07,14,30,1.70
2008,10,07,14,31,0.20
2008,10,07,14,32,0.60
2008,10,07,14,33,1.40
2008,10,07,14,34,0.40
2008,10,07,14,35,0.70
2008,10,07,14,36,0.70
2008,10,07,14,37,4.80
2008,10,07,14,38,1.60
2008,10,07,14,39,0.90
2008,10,07,14,40,1.20
2008,10,07,14,41,0.20
2008,10,07,14,42,0.00
2008,10,07,14,43,0.10
2008,10,07,14,44,2.50
2008,10,07,14,45,0.00
2008,10,07,14,46,0.10
2008,10,07,14,47,0.10
2008,10,07,14,48,2.50
2008,10,07,14,49,0.90
2008,10,07,14,50,0.50
2008,10,07,14,51,0.20
2008,10,07,14,52,0.40
2008,10,07,14,53,0.50
2008,10,07,14,54,1.40
2008,10,07,14,55,3.10
2008,10,07,14,56,2.20
2008,10,07,14,57,0.70
2008,10,07,14,58,0.60
2008,10,07,14,59,0.60
2008,10,07,15,00,0.20
2008,10,07,15,01,0.60
2008,10,07,15,02,0.40
2008,10,07,15,03,0.10
2008,10,07,15,04,0.00
2008,10,07,15,05,0.00
2008,10,07,15,06,1.20
2008,10,07,15,07,2.20
2008,10,07,15,08,0.60
2008,10,07,15,09,0.00
2008,10,07,15,10,3.10
2008,10,07,15,11,3.00
2008,10,07,15,12,2.70
2008,10,07,15,13,1.40
2008,10,07,15,14,3.30
2008,10,07,15,15,1.40
2008,10,07,15,16,0.30
2008,10,07,15,17,0.10
2008,10,07,15,18,1.10
2008,10,07,15,19,0.70
2008,10,07,15,20,2.70
2008,10,07,15,21,3.10
2008,10,07,15,22,6.20
2008,10,07,15,23,3.90
2008,10,07,15,24,3.00
2008,10,07,15,25,5.50
2008,10,07,15,26,2.20
2008,10,07,15,27,2.40
2008,10,07,15,28,1.90
2008,10,07,15,29,3.80
2008,10,07,15,30,2.70
2008,10,07,15,31,2.00
2008,10,07,15,32,2.30
2008,10,07,15,33,0.00
2008,10,07,15,34,1.80
2008,10,07,15,35,2.70
2008,10,07,15,36,1.40
2008,10,07,15,37,0.10
2008,10,07,15,38,3.10
2008,10,07,15,39,2.30
2008,10,07,15,40,2.70
2008,10,07,15,41,2.60
2008,10,07,15,42,1.80
2008,10,07,15,43,4.50
2008,10,07,15,44,6.40
2008,10,07,15,45,2.80
2008,10,07,15,46,0.50
2008,10,07,15,47,1.40
2008,10,07,15,48,4.10
2008,10,07,15,49,1.10
2008,10,07,15,50,0.10
2008,10,07,15,51,0.60
2008,10,07,15,52,0.60
2008,10,07,15,53,1.30
2008,10,07,15,54,2.10
2008,10,07,15,55,3.40
2008,10,07,15,56,1.80
2008,10,07,15,57,0.00
2008,10,07,15,58,1.40
2008,10,07,15,59,1.40
2008,10,07,16,00,0.80
2008,10,07,16,01,0.20
2008,10,07,16,02,0.00
2008,10,07,16,03,0.20
2008,10,07,16,04,0.10
2008,10,07,16,05,0.10
2008,10,07,16,06,0.60
2008,10,07,16,07,0.20
2008,10,07,16,08,2.90
2008,10,07,16,09,3.40
2008,10,07,16,10,2.10
2008,10,07,16,11,0.60
2008,10,07,16,12,1.20
2008,10,07,16,13,0.00
2008,10,07,16,14,4.40
2008,10,07,16,15,3.20
2008,10,07,16,16,0.60
2008,10,07,16,17,3.20
2008,10,07,16,18,1.80
2008,10,07,16,19,1.50
2008,10,07,16,20,3.10
2008,10,07,16,21,2.10
2008,10,07,16,22,1.60
2008,10,07,16,23,1.40
2008,10,07,16,24,0.60
2008,10,07,16,25,2.90
2008,10,07,16,26,3.00
2008,10,07,16,27,4.60
2008,10,07,16,28,3.10
2008,10,07,16,29,3.60
2008,10,07,16,30,4.10
2008,10,07,16,31,7.20
2008,10,07,16,32,3.70
2008,10,07,16,33,1.10
2008,10,07,16,34,2.20
2008,10,07,16,35,2.10
2008,10,07,16,36,0.40
2008,10,07,16,37,1.70
2008,10,07,16,38,6.60
2008,10,07,16,39,6.20
2008,10,07,16,40,0.40
2008,10,07,16,41,1.50
2008,10,07,16,42,1.80
2008,10,07,16,43,3.00
2008,10,07,16,44,0.00
2008,10,07,16,45,0.00
2008,10,07,16,46,0.10
2008,10,07,16,47,3.20
2008,10,07,16,48,0.50
2008,10,07,16,49,0.00
2008,10,07,16,50,0.20
2008,10,07,16,51,2.70
2008,10,07,16,52,2.50
2008,10,07,16,53,1.30
2008,10,07,16,54,1.80
2008,10,07,16,55,4.90
2008,10,07,16,56,5.20
2008,10,07,16,57,2.60
2008,10,07,16,58,0.10
2008,10,07,16,59,0.50
2008,10,07,17,00,0.60
2008,10,07,17,01,3.80
2008,10,07,17,02,2.40
2008,10,07,17,03,1.90
2008,10,07,17,04,0.30
2008,10,07,17,05,1.80
2008,10,07,17,06,6.40
2008,10,07,17,07,1.70
2008,10,07,17,08,3.30
2008,10,07,17,09,2.00
2008,10,07,17,10,0.90
2008,10,07,17,11,0.90
2008,10,07,17,12,3.40
2008,10,07,17,13,3.50
2008,10,07,17,14,1.60
2008,10,07,17,15,3.10
2008,10,07,17,16,1.60
2008,10,07,17,17,0.10
2008,10,07,17,18,0.70
2008,10,07,17,19,0.30
2008,10,07,17,20,1.40
2008,10,07,17,21,1.90
2008,10,07,17,22,0.70
2008,10,07,17,23,0.00
2008,10,07,17,24,0.00
2008,10,07,17,25,0.80
2008,10,07,17,26,0.50
2008,10,07,17,27,1.30
2008,10,07,17,28,0.20
2008,10,07,17,29,0.40
2008,10,07,17,30,0.00
2008,10,07,17,31,0.00
2008,10,07,17,32,2.10
2008,10,07,17,33,0.90
2008,10,07,17,34,1.90
2008,10,07,17,35,1.50
2008,10,07,17,36,0.80
2008,10,07,17,37,0.00
2008,10,07,17,38,0.50
2008,10,07,17,39,1.20
2008,10,07,17,40,2.70
2008,10,07,17,41,1.80
2008,10,07,17,42,4.30
2008,10,07,17,43,1.00
2008,10,07,17,44,3.10
2008,10,07,17,45,0.00
2008,10,07,17,46,0.20
2008,10,07,17,47,0.20
2008,10,07,17,48,0.00
2008,10,07,17,49,1.00
2008,10,07,17,50,0.60
2008,10,07,17,51,1.70
2008,10,07,17,52,0.20
2008,10,07,17,53,1.80
2008,10,07,17,54,1.50
2008,10,07,17,55,1.90
2008,10,07,17,56,2.70
2008,10,07,17,57,2.30
2008,10,07,17,58,3.60
2008,10,07,17,59,0.20
2008,10,07,18,00,1.80
2008,10,07,18,01,3.20
2008,10,07,18,02,2.80
2008,10,07,18,03,3.70